| time (UTC) | temp F | wind direction | speed MPH | gust MPH | rain 1hr in | rain 24hr in | rain mn in | humidity % | barometer mb |
| 20260505041209 | 91 | 67 | 4.0 | 9.0 | 0.02 | 0.00 | 0.04 | 76 | 1011.6 |
| 20260505040207 | 91 | 0 | 12.0 | 27.0 | 0.02 | 0.00 | 0.04 | 78 | 1011.7 |
| 20260505035205 | 90 | 112 | 0.0 | 0.0 | 0.02 | 0.00 | 0.04 | 80 | 1011.7 |
| 20260505034202 | 90 | 270 | 5.0 | 12.0 | 0.02 | 0.00 | 0.04 | 84 | 1011.8 |
| 20260505033200 | 89 | 22 | 7.0 | 17.0 | 0.02 | 0.00 | 0.04 | 84 | 1011.8 |
| 20260505032200 | 89 | 225 | 0.0 | 0.0 | 0.02 | 0.00 | 0.04 | 85 | 1011.9 |
| 20260505031157 | 88 | 112 | 0.0 | 0.0 | 0.02 | 0.00 | 0.04 | 82 | 1012.1 |
| 20260505030155 | 87 | 67 | 0.0 | 0.0 | 0.02 | 0.00 | 0.04 | 83 | 1012.2 |
| 20260505025154 | 88 | 225 | 0.0 | 0.0 | 0.02 | 0.00 | 0.04 | 84 | 1012.2 |
| 20260505024152 | 87 | 112 | 0.0 | 1.0 | 0.02 | 0.00 | 0.04 | 83 | 1012.0 |
| 20260505023151 | 86 | 0 | 1.0 | 3.0 | 0.02 | 0.00 | 0.04 | 82 | 1012.0 |
| 20260505022149 | 86 | 90 | 5.0 | 12.0 | 0.02 | 0.00 | 0.04 | 87 | 1012.0 |
| 20260505021142 | 84 | 0 | 2.0 | 5.0 | 0.02 | 0.00 | 0.04 | 87 | 1011.9 |
| 20260505020139 | 83 | 0 | 25.0 | 57.0 | 0.02 | 0.00 | 0.04 | 88 | 1012.0 |
| 20260505015138 | 83 | 112 | 10.0 | 23.0 | 0.02 | 0.00 | 0.04 | 89 | 1012.0 |
| 20260505014136 | 82 | 112 | 26.0 | 60.0 | 0.02 | 0.00 | 0.04 | 88 | 1011.9 |
| 20260505013135 | 81 | 112 | 2.0 | 5.0 | 0.02 | 0.00 | 0.04 | 88 | 1011.8 |
| 20260505012140 | 81 | 112 | 0.0 | 1.0 | 0.02 | 0.00 | 0.04 | 88 | 1011.5 |
| 20260505011132 | 80 | 112 | 6.0 | 15.0 | 0.02 | 0.00 | 0.04 | 89 | 1011.3 |
| 20260505010130 | 80 | 112 | 1.0 | 3.0 | 0.02 | 0.00 | 0.04 | 89 | 1011.2 |
| 20260505005124 | 79 | 112 | 8.0 | 19.0 | 0.02 | 0.00 | 0.04 | 90 | 1011.0 |
| 20260505004121 | 79 | 112 | 0.0 | 0.0 | 0.02 | 0.00 | 0.04 | 90 | 1010.7 |
| 20260505003120 | 79 | 112 | 12.0 | 27.0 | 0.02 | 0.00 | 0.04 | 89 | 1010.7 |
| 20260505002120 | 79 | 112 | 1.0 | 3.0 | 0.02 | 0.00 | 0.04 | 89 | 1010.6 |
| 20260505001119 | 78 | 112 | 5.0 | 12.0 | 0.02 | 0.00 | 0.04 | 88 | 1010.5 |
| 20260505000119 | 78 | 225 | 3.0 | 8.0 | 0.02 | 0.00 | 0.04 | 89 | 1010.5 |
| 20260504235118 | 78 | 0 | 0.0 | 0.0 | 0.02 | 0.00 | 0.04 | 90 | 1010.4 |
| 20260504234116 | 78 | 0 | 1.0 | 3.0 | 0.02 | 0.00 | 0.04 | 88 | 1010.4 |
| 20260504233115 | 78 | 112 | 3.0 | 7.0 | 0.02 | 0.00 | 0.04 | 87 | 1010.4 |
| 20260504232113 | 78 | 22 | 2.0 | 5.0 | 0.02 | 0.00 | 0.04 | 88 | 1010.4 |
| 20260504231111 | 78 | 112 | 1.0 | 2.0 | 0.02 | 0.00 | 0.04 | 86 | 1010.2 |
| 20260504230108 | 77 | 112 | 0.0 | 0.0 | 0.02 | 0.00 | 0.04 | 86 | 1010.1 |
| 20260504225106 | 78 | 225 | 0.0 | 0.0 | 0.02 | 0.00 | 0.04 | 86 | 1010.1 |
| 20260504224100 | 77 | 0 | 0.0 | 0.0 | 0.02 | 0.00 | 0.04 | 86 | 1010.0 |
| 20260504223058 | 78 | 270 | 0.0 | 1.0 | 0.02 | 0.00 | 0.04 | 86 | 1009.9 |
| 20260504222056 | 78 | 0 | 0.0 | 0.0 | 0.02 | 0.00 | 0.04 | 86 | 1009.8 |
| 20260504221052 | 77 | 22 | 0.0 | 0.0 | 0.02 | 0.00 | 0.04 | 86 | 1009.8 |
| 20260504220048 | 77 | 22 | 0.0 | 0.0 | 0.02 | 0.00 | 0.04 | 86 | 1009.7 |
| 20260504215045 | 77 | 0 | 0.0 | 0.0 | 0.02 | 0.00 | 0.04 | 86 | 1009.8 |
| 20260504214043 | 78 | 0 | 0.0 | 0.0 | 0.02 | 0.00 | 0.04 | 86 | 1009.8 |
| 20260504213046 | 78 | 22 | 3.0 | 8.0 | 0.02 | 0.00 | 0.04 | 86 | 1009.7 |
| 20260504212040 | 77 | 90 | 2.0 | 4.0 | 0.02 | 0.00 | 0.04 | 87 | 1009.8 |
| 20260504211038 | 77 | 225 | 0.0 | 0.0 | 0.02 | 0.00 | 0.04 | 88 | 1009.5 |
| 20260504210038 | 77 | 112 | 3.0 | 7.0 | 0.02 | 0.00 | 0.04 | 89 | 1009.4 |
| 20260504205036 | 77 | 0 | 3.0 | 7.0 | 0.02 | 0.00 | 0.04 | 90 | 1009.5 |
| 20260504204035 | 78 | 112 | 14.0 | 31.0 | 0.02 | 0.00 | 0.04 | 88 | 1009.5 |
| 20260504203033 | 77 | 112 | 9.0 | 20.0 | 0.02 | 0.00 | 0.04 | 86 | 1009.5 |
| 20260504202031 | 78 | 0 | 0.0 | 0.0 | 0.02 | 0.00 | 0.04 | 86 | 1009.3 |
| 20260504201030 | 78 | 112 | 0.0 | 0.0 | 0.02 | 0.00 | 0.04 | 86 | 1009.3 |
| 20260504200028 | 78 | 112 | 8.0 | 18.0 | 0.02 | 0.00 | 0.04 | 86 | 1009.5 |
| 20260504195027 | 78 | 225 | 0.0 | 0.0 | 0.02 | 0.00 | 0.04 | 86 | 1009.6 |
| 20260504194028 | 79 | 22 | 1.0 | 4.0 | 0.02 | 0.00 | 0.04 | 86 | 1009.8 |
| 20260504193024 | 78 | 112 | 2.0 | 5.0 | 0.02 | 0.00 | 0.04 | 86 | 1009.7 |
| 20260504192021 | 78 | 202 | 0.0 | 0.0 | 0.02 | 0.00 | 0.04 | 85 | 1009.2 |
| 20260504191021 | 78 | 22 | 3.0 | 8.0 | 0.02 | 0.00 | 0.04 | 87 | 1009.8 |
| 20260504190019 | 77 | 225 | 0.0 | 0.0 | 0.02 | 0.00 | 0.04 | 85 | 1009.8 |
| 20260504185017 | 78 | 225 | 0.0 | 0.0 | 0.02 | 0.00 | 0.04 | 84 | 1009.9 |
| 20260504184015 | 78 | 0 | 2.0 | 5.0 | 0.02 | 0.00 | 0.04 | 84 | 1010.0 |
| 20260504183007 | 78 | 90 | 3.0 | 8.0 | 0.02 | 0.00 | 0.04 | 85 | 1009.9 |
| 20260504182005 | 78 | 90 | 10.0 | 23.0 | 0.02 | 0.00 | 0.04 | 85 | 1010.0 |
| 20260504181003 | 79 | 0 | 0.0 | 0.0 | 0.02 | 0.00 | 0.04 | 83 | 1010.4 |
| 20260504180002 | 78 | 22 | 0.0 | 0.0 | 0.02 | 0.00 | 0.04 | 84 | 1010.5 |
| 20260504175008 | 78 | 22 | 1.0 | 4.0 | 0.02 | 0.00 | 0.04 | 83 | 1010.9 |
| 20260504174001 | 77 | 0 | 0.0 | 0.0 | 0.02 | 0.00 | 0.02 | 83 | 1010.9 |
| 20260504173000 | 77 | 225 | 0.0 | 0.0 | 0.01 | 0.00 | 0.02 | 83 | 1011.1 |
| 20260504172000 | 79 | 22 | 3.0 | 8.0 | 0.01 | 0.00 | 0.02 | 83 | 1011.5 |
| 20260504170958 | 78 | 90 | 0.0 | 0.0 | 0.01 | 0.00 | 0.00 | 82 | 1011.6 |
| 20260504150934 | 86 | 22 | 0.0 | 0.0 | 0.00 | 0.00 | 0.00 | 85 | 1011.9 |
| 20260504140911 | 87 | 112 | 0.0 | 0.0 | 0.00 | 0.00 | 0.00 | 86 | 1010.6 |
| 20260504081014 | 95 | 67 | 0.0 | 0.0 | 0.00 | 0.00 | 0.00 | 74 | 1007.9 |
| 20260504045937 | 98 | 112 | 3.0 | 7.0 | 0.00 | 0.00 | 0.00 | 76 | 1010.6 |